Temperature
19 19 19 19 19 18 18 18 18 18 18 18 18 18 18 18 18 18 18 18 18 18 18 18 18 18 18 18 18 18 18 18 18 18 18 18 18 18 18 18 17 18 18
19 19 19 19 19 18 18 18 18 18 18 18 18 18 18 18 18 18 18 18 18 18 18 18 18 18 18 18 18 18 18 18 18 18 18 18 18 18 17 17 17 18 18
19 19 19 19 19 19 18 18 18 18 18 18 18 18 18 18 18 18 18 18 18 18 18 18 18 18 18 18 18 18 18 18 18 18 17 18 18 18 17 17 17 18 18
19 19 19 19 19 18 18 18 18 18 18 18 18 18 18 18 18 18 18 18 18 18 18 18 18 18 18 18 18 18 18 18 17 17 17 17 17 18 18 18 17 17 18
19 19 19 19 19 18 18 18 18 18 18 18 18 18 18 18 18 18 18 18 18 18 18 18 18 18 18 18 18 18 17 17 17 17 17 17 17 17 17 17 17 17 17
19 19 19 19 19 19 18 18 18 18 18 18 18 18 18 18 18 18 18 18 18 18 17 17 17 18 18 18 18 17 17 17 17 17 17 17 17 17 17 17 17 17 17
20 19 19 19 19 19 18 18 18 18 18 18 18 18 18 18 17 17 17 17 17 18 17 17 17 18 18 18 18 17 17 17 17 17 17 17 17 17 17 17 17 17 17
20 19 19 19 19 19 18 18 18 18 18 18 18 18 18 18 17 17 17 17 17 17 17 17 17 18 18 18 18 18 18 17 17 17 17 17 18 18 17 17 17 17 17
20 19 19 19 19 19 19 18 18 18 18 18 18 18 18 18 18 17 17 17 17 17 17 17 17 18 18 18 18 18 18 18 18 17 17 18 18 17 17 17 17 17 17
21 20 19 19 19 19 19 18 18 18 18 18 18 18 18 18 18 17 17 17 17 17 17 17 18 18 18 18 18 18 18 18 18 17 18 18 18 18 17 17 17 17 17
21 20 20 19 19 19 18 18 18 18 18 18 18 18 18 17 17 17 17 17 17 18 18 18 18 18 18 18 18 18 18 18 18 18 18 18 18 17 17 17 17 17 17
21 20 20 19 19 19 19 18 18 18 18 18 18 18 18 17 17 17 18 18 18 18 18 18 18 18 18 18 18 18 18 18 18 18 18 18 18 18 17 17 17 17 17
21 20 20 19 19 19 19 19 18 18 18 18 18 18 18 18 18 18 18 18 18 18 18 18 18 18 18 18 18 18 18 18 18 18 18 18 18 18 17 17 17 17 17
21 20 20 19 19 19 19 19 18 18 18 18 18 18 18 18 18 18 18 18 18 18 18 18 17 17 17 18 18 18 18 18 18 18 18 18 18 18 17 17 17 17 17
20 20 19 19 19 19 19 19 19 18 18 18 18 18 18 18 18 18 18 18 18 18 18 18 17 17 18 18 18 18 18 18 18 18 18 18 18 18 18 18 17 17 17
20 20 19 19 18 18 18 19 18 18 18 18 18 18 18 18 18 18 18 18 18 18 18 18 18 18 18 18 18 18 18 18 18 18 18 18 18 18 18 18 17 17 17
20 20 19 19 18 18 18 18 18 18 18 18 18 18 18 18 18 18 18 18 18 18 18 18 18 18 18 18 18 18 18 18 18 18 17 17 17 17 17 17 17 17 17
20 19 19 19 19 18 18 18 18 18 18 18 18 18 18 18 18 18 18 18 18 18 18 18 18 18 18 18 18 18 18 18 18 18 17 17 17 17 17 17 17 17 17
20 19 19 19 19 19 18 18 18 18 18 18 18 18 18 18 18 18 18 18 18 18 18 18 18 18 18 18 18 18 18 18 18 18 17 17 17 17 17 17 17 17 17
20 19 19 19 19 19 18 18 18 18 18 18 18 18 18 18 18 18 18 18 18 18 18 18 18 18 18 18 18 18 18 18 18 18 17 17 17 17 17 17 17 17 17
20 19 19 19 19 18 18 18 18 18 18 18 18 18 18 18 18 18 18 18 18 18 18 18 18 18 18 18 18 18 18 18 18 18 17 17 17 17 17 17 16 16 16
20 20 19 19 19 19 19 19 19 19 19 18 18 18 18 18 18 18 18 18 18 18 18 18 18 18 18 18 18 18 18 18 18 17 17 17 17 17 17 17 16 16 16
21 20 20 19 19 19 19 19 19 19 18 19 18 18 18 18 18 18 18 18 18 18 18 18 18 18 18 18 18 18 18 18 17 17 17 17 17 17 17 16 16 16 16
21 20 20 20 19 19 19 19 19 19 19 19 19 18 18 18 18 18 18 18 18 18 18 18 18 18 18 18 18 18 18 18 17 17 17 17 17 17 16 16 16 16 16
22 21 20 20 20 19 19 19 19 19 19 19 19 19 19 18 18 18 18 18 18 18 18 18 18 18 18 18 18 18 18 18 18 17 17 17 17 16 16 16 16 16 16
22 21 21 20 20 19 19 19 19 19 19 19 19 19 19 19 19 19 18 19 18 18 18 18 18 18 18 18 18 18 18 18 18 18 17 17 17 16 16 16 16 16 15
Wind_Speed
10 11 12 12 11 11 11 12 11 12 13 13 13 14 14 15 15 16 16 17 17 18 19 19 20 20 20 19 19 19 19 20 21 21 21 19 18 17 16 16 15 15 17
13 13 13 12 11 12 12 11 12 13 13 13 13 13 14 14 15 16 17 17 17 18 19 19 19 20 20 19 18 18 18 19 19 20 19 18 17 15 14 14 14 14 16
14 13 12 11 11 11 11 11 11 12 12 13 13 14 14 14 15 16 17 17 18 18 18 19 18 19 19 19 17 17 17 17 17 18 17 15 15 15 15 15 16 15 15
13 13 12 11 12 11 11 11 11 12 12 13 14 14 14 14 15 17 17 18 18 18 18 18 18 19 18 18 17 16 16 15 14 14 11 13 14 14 14 15 15 14 14
13 14 12 12 12 11 11 11 11 11 12 13 13 14 14 14 15 17 17 18 18 18 18 18 18 17 17 16 16 14 13 12 11 9 10 12 14 14 14 14 13 13 13
13 14 13 12 12 11 11 12 12 11 12 12 13 13 13 14 14 16 17 17 17 17 17 17 17 16 16 15 13 11 10 8 6 7 10 12 13 14 14 13 12 12 12
12 14 14 12 11 11 11 11 11 11 12 13 13 13 13 14 14 15 16 16 16 16 16 16 15 15 14 13 10 9 8 6 5 7 9 11 13 15 13 12 11 11 10
13 14 14 12 12 11 11 11 11 11 12 13 13 12 12 13 14 15 15 15 15 15 15 14 14 13 12 10 8 6 5 3 7 9 10 11 14 15 13 12 11 10 10
12 12 12 12 11 11 11 11 11 11 12 12 12 12 12 13 13 14 14 13 14 14 14 13 12 12 10 9 7 5 4 2 4 8 11 11 14 14 13 12 11 10 10
10 10 10 11 11 10 10 11 12 12 11 11 11 11 11 11 12 13 13 13 12 12 12 12 11 10 9 8 6 5 4 3 5 8 10 12 14 13 12 11 11 10 9
8 7 8 8 8 10 11 12 12 11 11 10 9 9 9 8 10 10 13 13 12 12 11 11 10 9 8 7 7 6 4 4 5 9 10 13 14 13 12 11 10 10 9
7 7 7 7 6 6 9 10 9 9 9 7 7 8 7 6 9 11 13 13 12 11 10 10 9 8 7 6 7 7 5 5 7 9 11 16 14 14 12 11 10 9 9
6 6 7 7 5 5 5 6 5 7 8 8 7 7 7 7 8 10 9 10 10 9 7 8 8 7 7 6 5 5 4 3 6 9 12 15 14 12 11 10 10 9 9
6 6 8 8 6 5 4 4 4 5 5 5 7 6 6 3 3 5 5 7 7 6 5 5 4 4 4 4 4 3 3 3 7 10 12 14 13 12 11 10 9 9 9
6 7 8 8 6 4 3 2 4 4 4 7 7 6 6 4 3 4 3 4 5 6 5 3 3 3 2 2 2 3 2 4 7 9 10 13 13 12 11 10 9 9 9
7 7 7 7 7 5 3 2 3 3 4 5 6 6 5 5 4 3 3 2 3 5 5 4 4 3 2 1 1 2 2 3 6 9 10 11 12 11 10 10 9 9 8
7 7 6 7 7 5 4 3 4 3 5 4 5 6 5 5 5 4 3 2 2 4 5 4 4 3 2 2 2 2 2 2 4 6 9 9 10 10 10 10 9 9 9
7 6 4 6 8 5 4 2 2 3 4 4 6 7 6 6 6 3 3 2 3 3 3 3 2 2 2 2 2 1 2 2 3 4 6 8 9 9 10 11 10 9 9
8 6 4 4 7 5 4 3 3 3 3 3 4 5 6 6 6 4 2 3 3 2 2 3 3 2 2 2 2 2 2 2 2 3 4 5 8 9 9 10 11 10 9
9 7 6 4 5 5 4 3 2 2 3 3 3 3 4 4 4 3 3 3 3 2 2 2 3 2 1 1 1 2 1 2 3 2 3 4 6 7 8 10 10 8 8
9 7 6 5 5 3 3 3 3 3 3 3 4 5 5 4 4 2 2 3 1 2 1 2 2 3 2 2 1 1 1 1 2 2 2 2 3 5 6 7 8 7 7
9 8 7 6 6 4 3 3 3 3 3 3 3 4 5 5 4 4 2 2 2 2 2 1 1 1 1 1 2 2 1 0 1 2 3 3 3 4 4 5 6 7 6
11 10 8 7 6 5 4 3 3 3 2 3 4 4 4 5 5 3 4 2 2 2 3 3 2 2 2 2 2 1 2 2 1 1 2 2 3 3 2 4 6 6 7
11 10 8 7 6 5 5 4 5 5 4 4 4 4 5 5 5 4 4 3 2 1 2 3 3 2 3 3 2 2 2 1 2 1 0 2 2 2 2 2 3 5 7
12 11 9 8 6 5 5 4 4 3 3 4 4 5 5 4 4 4 4 3 2 2 2 1 2 2 2 2 2 2 2 2 2 3 2 2 1 1 2 3 2 4 6
12 11 11 9 7 6 6 5 4 3 2 3 4 4 4 4 4 4 5 4 3 2 2 2 2 3 3 2 2 2 2 2 2 2 2 3 3 2 2 2 2 3 6
Wind_Direction
89 88 84 76 72 71 73 74 75 75 76 78 80 84 89 95 99 101 103 107 109 111 113 114 116 117 117 116 115 114 113 113 114 115 115 114 115 116 117 117 117 110 110
100 95 86 80 77 76 76 76 77 79 80 82 83 87 91 96 98 99 102 105 106 108 112 114 115 118 119 119 119 119 117 119 120 121 120 118 119 119 118 114 111 114 114
100 98 90 83 82 79 80 82 83 83 84 84 84 88 91 95 98 102 103 104 105 107 111 114 116 121 122 123 123 124 123 124 126 129 128 122 118 115 111 109 112 116 116
100 98 93 90 87 83 83 87 86 86 87 88 87 88 91 93 100 105 105 105 105 106 107 112 117 122 125 126 125 125 128 131 135 138 134 127 123 118 115 113 116 117 118
102 102 100 98 94 87 85 90 90 88 90 92 92 91 93 95 100 106 107 107 106 106 107 109 117 121 126 127 126 129 134 136 139 136 120 117 118 124 120 118 119 120 121
109 107 105 103 99 94 91 94 93 93 95 98 96 94 94 96 99 106 108 108 108 108 109 109 110 115 121 125 128 131 135 138 142 127 125 123 124 129 127 125 122 123 125
108 108 110 109 106 103 100 100 98 97 98 100 99 98 98 96 99 104 108 109 110 109 109 110 110 114 119 125 132 139 149 158 149 128 118 118 125 133 132 131 130 129 128
104 109 117 118 115 110 108 107 106 104 104 103 102 103 105 103 106 110 110 112 112 110 111 112 112 116 123 133 145 160 171 181 138 129 120 121 133 137 135 133 133 135 134
107 114 126 127 124 119 117 119 117 114 110 110 107 107 109 109 111 115 115 116 116 115 115 118 121 125 134 141 150 160 169 183 135 134 125 127 138 139 140 140 140 142 141
106 111 124 129 133 130 125 129 127 123 121 119 118 119 121 121 119 123 122 120 122 122 123 125 129 135 143 152 160 168 186 213 164 136 122 135 144 146 146 147 148 149 149
100 107 111 118 128 135 134 131 135 132 132 131 130 132 134 136 130 127 124 128 129 130 133 134 137 144 153 168 180 192 210 202 139 120 124 140 147 147 148 149 149 150 150
105 109 109 112 117 127 127 138 144 135 137 144 139 146 145 136 130 125 129 134 137 141 145 151 156 161 172 179 190 203 211 177 134 126 130 142 146 148 150 153 155 155 154
112 105 106 103 105 105 115 139 133 131 139 142 135 137 137 128 133 135 142 146 150 155 163 162 175 184 182 179 175 185 191 140 121 121 137 145 147 151 156 160 161 161 161
104 101 101 102 92 82 90 111 124 128 130 126 133 140 129 122 130 138 143 149 157 160 163 172 188 176 160 161 163 165 151 123 115 118 142 149 152 157 161 163 166 169 169
113 103 98 98 97 91 79 77 110 109 119 123 126 131 133 134 129 127 125 140 155 160 163 167 160 140 138 157 159 138 113 107 119 123 141 155 156 161 165 168 172 177 180
119 111 112 112 108 107 109 89 103 122 120 121 126 131 138 133 126 121 135 148 167 163 159 155 145 140 150 125 98 97 107 118 125 132 145 157 164 168 172 176 181 186 189
121 116 125 127 118 123 126 144 130 133 134 128 129 132 139 133 137 144 152 176 157 147 141 144 135 143 164 153 154 140 112 102 119 133 147 153 163 175 178 181 185 188 189
126 124 133 128 127 127 122 116 111 121 120 130 137 140 145 137 148 162 155 157 155 159 149 142 153 153 167 155 149 154 136 122 132 149 156 160 161 165 180 187 188 187 189
129 130 129 108 124 134 140 134 125 114 122 132 126 132 142 149 157 167 148 139 162 161 151 173 141 150 157 150 155 161 162 148 154 159 158 167 164 159 165 178 185 187 191
136 136 136 132 125 139 143 140 138 138 134 135 130 135 138 147 150 166 144 154 177 155 149 126 126 142 157 176 181 125 146 164 154 158 164 163 157 161 163 165 174 183 192
144 144 147 149 141 148 148 158 166 162 155 148 148 150 151 155 153 162 141 148 176 141 143 159 156 170 184 177 153 109 113 177 161 149 138 136 139 137 136 146 162 170 174
152 153 156 157 155 166 157 164 175 159 158 150 148 149 163 159 161 166 160 176 178 154 161 177 167 170 211 184 153 145 146 95 35 128 133 146 139 133 133 143 148 148 152
158 163 169 164 163 173 167 175 162 150 165 147 152 155 167 168 166 174 163 175 180 176 167 180 190 189 204 225 206 180 171 186 157 95 136 127 120 113 121 125 133 142 139
164 165 160 160 163 169 180 188 180 176 181 162 160 158 164 168 169 173 161 165 184 185 158 196 175 198 195 225 226 222 213 154 153 151 101 120 130 130 129 119 114 118 123
166 164 160 159 165 172 184 189 200 186 178 157 153 156 165 166 169 166 155 161 169 186 180 201 143 212 218 228 231 212 196 176 189 170 180 172 143 132 139 138 134 127 126
168 167 164 161 168 174 186 188 193 200 191 154 159 163 180 170 172 171 161 163 174 187 187 194 205 205 223 235 240 236 215 200 202 184 176 169 164 154 150 145 151 136 130
Height
1507 1505 1504 1503 1503 1502 1502 1502 1501 1501 1501 1501 1501 1501 1501 1501 1501 1502 1503 1504 1506 1507 1509 1511 1514 1517 1520 1523 1527 1530 1534 1537 1539 1541 1544 1547 1549 1551 1552 1554 1556 1557 1558
1507 1506 1506 1505 1504 1504 1504 1504 1503 1503 1503 1503 1503 1503 1503 1504 1504 1504 1505 1506 1508 1509 1511 1513 1516 1519 1523 1526 1530 1533 1536 1539 1541 1543 1546 1548 1551 1553 1554 1556 1558 1559 1560
1508 1508 1507 1507 1506 1506 1505 1505 1505 1505 1505 1505 1505 1505 1506 1506 1506 1507 1507 1509 1510 1512 1514 1516 1519 1521 1525 1528 1532 1535 1538 1541 1543 1545 1548 1550 1552 1554 1556 1558 1559 1560 1562
1510 1509 1509 1508 1508 1507 1507 1507 1507 1507 1507 1507 1508 1508 1508 1509 1508 1509 1510 1512 1514 1515 1517 1519 1521 1524 1528 1531 1535 1537 1540 1543 1545 1548 1550 1552 1554 1556 1558 1559 1561 1562 1563
1511 1510 1510 1510 1509 1509 1508 1508 1508 1509 1509 1510 1510 1510 1511 1511 1512 1513 1514 1516 1517 1519 1521 1522 1525 1528 1531 1534 1537 1539 1543 1545 1548 1550 1552 1554 1556 1557 1559 1560 1562 1563 1564
1513 1512 1512 1511 1511 1511 1510 1510 1510 1511 1511 1512 1512 1513 1513 1514 1514 1515 1517 1519 1521 1523 1524 1526 1528 1530 1533 1536 1539 1542 1544 1547 1550 1552 1554 1555 1557 1558 1560 1561 1563 1564 1565
1514 1513 1513 1513 1513 1513 1513 1513 1512 1513 1513 1514 1514 1515 1516 1517 1518 1519 1521 1522 1524 1526 1528 1530 1532 1534 1536 1538 1541 1544 1547 1549 1551 1553 1555 1556 1558 1560 1561 1562 1564 1565 1566
1515 1515 1514 1514 1514 1514 1514 1515 1515 1515 1515 1516 1517 1518 1519 1520 1521 1522 1524 1526 1528 1530 1532 1534 1536 1537 1539 1542 1544 1546 1548 1550 1553 1555 1556 1558 1559 1560 1562 1563 1564 1566 1567
1517 1516 1516 1516 1516 1516 1516 1516 1517 1517 1518 1519 1520 1521 1522 1523 1524 1526 1528 1529 1531 1533 1535 1537 1538 1540 1542 1544 1546 1548 1550 1552 1554 1555 1557 1558 1560 1561 1563 1564 1565 1566 1568
1519 1518 1518 1518 1518 1517 1517 1518 1518 1519 1520 1521 1523 1524 1525 1526 1528 1529 1531 1532 1534 1536 1538 1539 1541 1543 1544 1547 1549 1550 1552 1553 1555 1556 1557 1559 1560 1562 1563 1564 1566 1567 1568
1520 1520 1520 1520 1519 1519 1520 1520 1520 1521 1522 1524 1525 1527 1528 1529 1530 1532 1533 1535 1537 1538 1540 1542 1544 1545 1547 1549 1551 1552 1553 1554 1556 1557 1558 1560 1561 1562 1564 1565 1566 1567 1568
1521 1521 1521 1521 1521 1522 1522 1522 1522 1523 1525 1526 1528 1529 1530 1531 1533 1534 1536 1538 1539 1541 1543 1545 1546 1547 1549 1550 1552 1553 1554 1555 1557 1558 1559 1560 1561 1562 1564 1565 1566 1567 1568
1521 1522 1522 1522 1522 1523 1524 1524 1525 1526 1527 1528 1530 1531 1532 1533 1535 1537 1538 1540 1542 1543 1545 1546 1548 1549 1550 1552 1553 1554 1555 1557 1558 1558 1559 1561 1562 1563 1564 1565 1566 1567 1568
1522 1523 1522 1523 1523 1524 1525 1526 1527 1528 1529 1531 1532 1533 1534 1535 1537 1539 1540 1542 1543 1545 1546 1548 1549 1551 1552 1553 1554 1555 1556 1558 1558 1559 1560 1561 1562 1563 1564 1565 1566 1567 1568
1523 1523 1523 1523 1523 1524 1525 1527 1528 1530 1531 1532 1534 1535 1536 1537 1539 1540 1542 1543 1545 1546 1548 1549 1551 1552 1553 1554 1555 1556 1557 1559 1559 1560 1560 1561 1562 1563 1564 1565 1566 1567 1567
1523 1524 1524 1524 1524 1525 1526 1527 1529 1531 1532 1534 1535 1536 1537 1539 1540 1542 1543 1544 1546 1548 1549 1550 1551 1552 1554 1555 1556 1557 1558 1559 1560 1560 1561 1562 1562 1563 1564 1565 1565 1566 1567
1524 1524 1525 1525 1525 1526 1527 1529 1530 1532 1533 1535 1536 1537 1538 1540 1541 1543 1544 1545 1547 1549 1550 1551 1552 1553 1554 1555 1556 1557 1558 1559 1560 1560 1561 1561 1562 1563 1564 1564 1565 1566 1566
1524 1524 1525 1526 1526 1527 1528 1529 1531 1533 1534 1536 1537 1538 1539 1541 1542 1543 1545 1546 1547 1549 1550 1551 1552 1553 1554 1555 1556 1557 1558 1559 1559 1560 1561 1561 1562 1563 1563 1564 1565 1565 1565
1524 1525 1526 1526 1527 1527 1529 1530 1532 1533 1535 1536 1537 1538 1539 1541 1543 1544 1545 1546 1548 1549 1550 1551 1552 1553 1554 1555 1556 1557 1558 1558 1559 1560 1560 1561 1562 1562 1562 1563 1564 1564 1564
1524 1525 1526 1527 1527 1528 1530 1531 1532 1534 1535 1536 1537 1538 1539 1541 1542 1544 1545 1546 1548 1549 1550 1551 1552 1553 1554 1554 1555 1556 1557 1558 1558 1559 1559 1560 1561 1562 1562 1562 1563 1563 1563
1524 1525 1526 1527 1528 1529 1530 1531 1532 1534 1535 1536 1537 1538 1539 1541 1542 1543 1545 1546 1547 1548 1549 1550 1551 1552 1553 1554 1555 1556 1557 1557 1558 1558 1559 1559 1560 1561 1561 1561 1561 1562 1562
1523 1524 1525 1527 1528 1529 1530 1531 1533 1534 1536 1536 1537 1538 1539 1541 1542 1543 1544 1545 1546 1547 1548 1549 1550 1551 1552 1553 1554 1555 1556 1558 1557 1557 1558 1558 1559 1560 1560 1560 1560 1560 1561
1522 1523 1525 1526 1527 1529 1530 1531 1533 1534 1535 1537 1537 1538 1539 1540 1541 1542 1544 1545 1546 1547 1547 1548 1549 1550 1551 1552 1553 1554 1554 1555 1556 1557 1557 1558 1559 1559 1559 1560 1560 1560 1559
1521 1522 1524 1525 1526 1528 1529 1531 1533 1534 1535 1536 1537 1538 1539 1540 1541 1542 1543 1544 1545 1545 1546 1547 1548 1549 1550 1551 1552 1552 1553 1553 1554 1555 1557 1557 1558 1558 1558 1559 1559 1559 1558
1519 1521 1522 1524 1525 1527 1528 1530 1532 1534 1535 1536 1537 1538 1539 1540 1540 1541 1542 1543 1544 1544 1545 1546 1547 1547 1548 1549 1550 1550 1551 1552 1552 1553 1554 1556 1556 1557 1557 1557 1557 1557 1557
1518 1520 1521 1522 1524 1526 1527 1529 1531 1532 1534 1535 1536 1537 1538 1539 1540 1541 1541 1542 1543 1543 1544 1544 1545 1545 1546 1547 1548 1548 1549 1550 1550 1551 1552 1553 1554 1555 1555 1556 1556 1556 1556